sat.trackr.live / text

‹ back to catalog

STARLINK-34855

NORAD 65416 · 2025-192N

PAYLOAD ACTIVE UNKNOWN

§ Identity

Operator
Country
US
Launch date
2025-08-31
Launch site
AFETR
Launch vehicle
Mass (kg)
RCS (m²)

Purposes: comms

External: N2YO · Heavens-Above · Gunter

§ Orbital elements

Epoch: 2026-09-20T17:22:07.041504Z

Period
94.01 min
Inclination
53.1606°
Eccentricity
0.0001476
Mean motion
15.31717791 rev/d
Perigee alt
469.7 km
Apogee alt
471.7 km
Semi-major
6,848.8 km
B*
4.3270e-4
RAAN
45.8079°
Arg perigee
91.2377°
Mean anomaly
268.8793°
Rev number
5,925

§ Raw data

STARLINK-348551 65416U 25192N   26263.72369261  .00013093  00000+0  43270-3 0  99902 65416  53.1606  45.8079 0001476  91.2377 268.8793 15.31717791 59251

JSON: /api/v1/satellites/65416 · /tle

For live sub-satellite position, see the globe view (requires WebGL).

§ Visibility from observer

Set your observer location to see the next 7 days of passes ≥ 10°. The values pass through the URL so the page stays shareable.

No JS? Fill the form by hand. The geolocation button needs JavaScript.